ENT7160 LTAI-EPKT

Flight info

Callsign ENT7160
Flight time N/A
Altitude 34000
Route EKNUD1K/18L EKNUD UT337 OSVEL/N0454F360 UL619 MAKOL DCT ANAVU DCT KENIN DCT LENOV
Aircraft B738/M-SDGHIJ1RWXY/EB1

Departure

Time N/A
Airport Antalya International Airport (LTAI)

Arrival

Time 2026-05-05 17:28
Airport Katowice Wojciech Korfanty International Airport (EPKT)
Time Latitude Longitude Altitude Speed Heading
2026-05-05 17:20 50.28913 19.62700 7003 ft 288 kts 315°
2026-05-05 17:20 50.30445 19.60693 6699 ft 288 kts 315°
2026-05-05 17:20 50.31978 19.58681 6394 ft 287 kts 315°
2026-05-05 17:21 50.33490 19.56699 6220 ft 279 kts 315°
2026-05-05 17:21 50.34962 19.54768 5928 ft 273 kts 315°
2026-05-05 17:21 50.36399 19.52878 5674 ft 267 kts 315°
2026-05-05 17:22 50.39200 19.49188 5171 ft 263 kts 315°
2026-05-05 17:22 50.40597 19.47344 5049 ft 261 kts 314°
2026-05-05 17:22 50.41974 19.45529 4922 ft 254 kts 314°
2026-05-05 17:22 50.43297 19.43787 4796 ft 243 kts 314°
2026-05-05 17:23 50.44573 19.42102 4682 ft 237 kts 314°
2026-05-05 17:23 50.45833 19.40435 4565 ft 237 kts 313°
2026-05-05 17:23 50.47063 19.38700 4306 ft 235 kts 302°
2026-05-05 17:23 50.47604 19.36476 4152 ft 206 kts 263°
2026-05-05 17:24 50.47564 19.34269 3929 ft 203 kts 265°
2026-05-05 17:24 50.47573 19.32086 3714 ft 199 kts 264°
2026-05-05 17:24 50.47578 19.29947 3464 ft 193 kts 264°
2026-05-05 17:24 50.47580 19.27894 3223 ft 182 kts 264°
2026-05-05 17:25 50.47580 19.25940 2991 ft 178 kts 265°
2026-05-05 17:25 50.47579 19.24653 2827 ft 176 kts 265°
2026-05-05 17:25 50.47582 19.22263 2542 ft 154 kts 264°
2026-05-05 17:25 50.47581 19.20600 2334 ft 150 kts 265°
2026-05-05 17:26 50.47585 19.18970 2155 ft 148 kts 263°
2026-05-05 17:26 50.47585 19.17338 1963 ft 149 kts 262°
2026-05-05 17:26 50.47582 19.15722 1749 ft 147 kts 266°
2026-05-05 17:26 50.47551 19.14128 1554 ft 143 kts 263°
2026-05-05 17:27 50.47598 19.12458 1274 ft 163 kts 270°
2026-05-05 17:27 50.47591 19.10730 1111 ft 156 kts 268°
2026-05-05 17:27 50.47596 19.09073 1002 ft 145 kts 268°
2026-05-05 17:27 50.47598 19.07718 999 ft 99 kts 270°
2026-05-05 17:28 50.47583 19.07170 1001 ft 22 kts 254°
2026-05-05 17:28 50.47525 19.06961 998 ft 21 kts 241°
2026-05-05 17:28 50.47452 19.06766 1001 ft 20 kts 239°
2026-05-05 17:28 50.47357 19.06628 997 ft 20 kts 180°
2026-05-05 17:29 50.47239 19.06686 1000 ft 19 kts 105°
2026-05-05 17:29 50.47235 19.06892 1002 ft 19 kts 90°
2026-05-05 17:29 50.47235 19.07090 1002 ft 18 kts 90°
2026-05-05 17:29 50.47234 19.07282 1000 ft 17 kts 90°
2026-05-05 17:30 50.47234 19.07467 1000 ft 17 kts 90°
2026-05-05 17:30 50.47233 19.07645 1000 ft 16 kts 90°
2026-05-05 17:30 50.47233 19.07817 1001 ft 15 kts 90°
2026-05-05 17:30 50.47233 19.07988 999 ft 17 kts 90°
2026-05-05 17:31 50.47232 19.08200 999 ft 13 kts 90°
2026-05-05 17:31 50.47225 19.08243 1000 ft 4 kts 140°
2026-05-05 17:31 50.47197 19.08247 997 ft 4 kts 177°
2026-05-05 17:31 50.47169 19.08247 1000 ft 4 kts 179°
2026-05-05 17:32 50.47151 19.08247 799 ft 2 kts 180°
2026-05-05 17:32 50.47150 19.08247 997 ft 0 kts 180°